Home > Weather > Sion > Past weeks

Flag for Switzerland Past Weather in Sion, Valais, Switzerland — Yesterday and Last 2 Weeks

Now
66 °F

Clear.


Feels Like: 66 °F
Forecast: 68 / 91 °F
Wind: 2 mph from East

Location: Sion

Current Time: Aug 25, 2016 at 3:16:22 AM

Latest Report: Aug 25, 2016 at 2:00 AM


Visibility: 19 mi

Pressure: 30.11 "Hg (28.35 "Hg at 514m altitude)

Humidity: 75%

Dew Point: 57 °F

Location of SionLocation

Past Weather in Sion — Graph

°F

Sion Temperature Yesterday

Maximum temperature yesterday: 89 °F (at 4:00 PM)
Minimum temperature yesterday: 59 °F (at 6:00 AM)
Average temperature yesterday: 74 °F

High & Low Weather Summary for the Past Weeks

 TemperatureHumidityPressure
High90 °F (Aug 15, 5:00 PM)96% (Aug 10, 5:00 AM)30.39 "Hg (Aug 10, 5:00 AM)
Low50 °F (Aug 11, 7:00 AM)23% (Aug 16, 6:00 PM)29.75 "Hg (Aug 17, 5:00 PM)
Average69 °F61%30.08 "Hg
* Reported Aug 10 2:00 AM — Aug 25 2:00 AM, Sion, Weather by CustomWeather, © 2016

Note: Actual official high and low records may vary slightly from our data, if they occured in-between our weather recording intervals... More about our weather records

Advertising

Sion Weather History for the Previous 24 Hours

Scroll right to see more
 ConditionsComfort  
Time TempWeatherWind HumidityBarometerVisibility
2:00 AM
Thu, Aug 25
66 °FClear.2 mph75%30.11 "Hg19 mi
1:00 AM68 °FMild.1 mph69%30.10 "HgN/A
12:00 AM71 °FMild.No wind62%30.09 "HgN/A
11:00 PM
Wed, Aug 24
74 °FClear.3 mph53%30.07 "Hg19 mi
10:00 PM76 °FMild.3 mph51%30.05 "HgN/A
9:00 PM79 °FWarm.2 mph45%30.02 "HgN/A
8:00 PM83 °FSunny.14 mph37%29.98 "Hg25 mi
7:00 PM86 °FPleasantly warm.14 mph36%29.95 "HgN/A
6:00 PM88 °FHot.14 mph35%29.95 "HgN/A
5:00 PM89 °FSunny.17 mph36%29.96 "Hg25 mi
4:00 PM89 °FHot.18 mph35%29.98 "HgN/A
3:00 PM88 °FPleasantly warm.14 mph36%30.01 "HgN/A
2:00 PM85 °FSunny.13 mph37%30.04 "Hg25 mi
1:00 PM83 °FPleasantly warm.7 mph33%30.07 "HgN/A
12:00 PM79 °FPleasantly warm.2 mph39%30.11 "HgN/A
11:00 AM75 °FMild.2 mph47%30.15 "HgN/A
10:00 AM71 °FMild.5 mph52%30.19 "HgN/A
9:00 AM67 °FMild.3 mph62%30.22 "HgN/A
8:00 AM63 °FSunny.5 mph74%30.24 "Hg22 mi
7:00 AM60 °FCool.1 mph83%30.24 "HgN/A
6:00 AM59 °FCool.2 mph87%30.23 "HgN/A
5:00 AM60 °FClear.1 mph86%30.23 "Hg16 mi
4:00 AM62 °FCool.1 mph85%30.23 "HgN/A
3:00 AM63 °FMild.1 mph79%30.22 "HgN/A
Weather by CustomWeather, © 2016

See weather overviewHow to use our weather pages